{"data":{"norad_id":66354,"intl_designator":"2025-254G","name":"STARLINK-35895","alt_names":[],"object_type":"PAYLOAD","status":"ACTIVE","operator":null,"country":"US","launch_date":"2025-11-06","launch_site_code":"AFWTR","launch_vehicle":null,"mission":null,"orbit_class":"UNKNOWN","rcs_meters":null,"size_class":null,"mass_kg":null,"dimensions":null,"purposes":["comms"],"wikipedia_slug":null,"has_3d_model":false,"image_url":null,"decayed_at":null,"tle_current":{"epoch":"2026-09-20T20:56:57.803136Z","epoch_age_seconds":61244,"freshness":"FRESH","line1":"1 66354U 25254G   26263.87289124  .00014524  00000+0  45173-3 0  9990","line2":"2 66354  53.1573  44.1113 0000982  75.5804 284.5307 15.33572657 48883","mean_motion":15.33572657,"eccentricity":9.82e-5,"inclination_deg":53.1573,"raan_deg":44.1113,"arg_perigee_deg":75.5804,"mean_anomaly_deg":284.5307,"bstar":0.00045173,"rev_number":4888,"period_min":93.898387756662,"perigee_km":464.49137131023,"apogee_km":465.83539550553,"semimajor_km":6843.3003834079,"source":"CELESTRAK","updated_at":"2026-09-21T09:00:35.880311Z"}}}